Lawrenceville, IL

6:02 PM CDT on March 26, 2017 (GMT -0500)
Lawrenceville-Vincennes International

Weather History for KLWV - October, 2012

Change the Weather History Date:

Saturday, October 6, 2012

  Actual Average Record
Temperature  
Mean Temperature 46 °F 61 °F  
Max Temperature 55 °F 74 °F 93 °F (2007)
Min Temperature 37 °F 49 °F 33 °F (2004)
Degree Days  
Heating Degree Days 19 6  
Month to date heating degree days 46 30  
Since 1 July heating degree days 111 69  
Cooling Degree Days 0 2  
Month to date cooling degree days 3 13  
Year to date cooling degree days 1695 1367  
Moisture  
Dew Point 35 °F    
Average Humidity 69    
Maximum Humidity 92    
Minimum Humidity 46    
Precipitation  
Precipitation 0.00 in 0.14 in 0.86 in (1967)
Month to date precipitation 1.80 0.91  
Year to date precipitation 25.47 33.45  
Sea Level Pressure  
Sea Level Pressure 30.20 in    
Wind  
Wind Speed 9 mph (NW)    
Max Wind Speed 15 mph    
Max Gust Speed 20 mph    
Visibility 10 miles    
Events      
T = Trace of Precipitation, MM = Missing Value Source: NWS Daily Summary

Daily Weather History Graph

Daily Weather History Graph

Search for Another Location

Airport or City:

Trip Planner

Search our weather history database for the weather conditions in past years. The results will help you decide how hot, cold, wet, or windy it might be!

Date:

Astronomy

Oct. 06, 2012 Rise Set
Actual Time 6:51 AM CDT 6:24 PM CDT
Civil Twilight 6:24 AM CDT 6:51 PM CDT
Nautical Twilight 5:54 AM CDT 7:21 PM CDT
Astronomical Twilight 5:23 AM CDT 7:52 PM CDT
Moon 10:42 PM CDT (10/6) 12:42 PM CDT (10/6)
Length of Visible Light 12h 26m
Length of Day
11h 33m
Waning Gibbous, 65% of the Moon is Illuminated
Oct 6
Waning Gibbous
Oct 8
Last Quarter
Oct 15
New
Oct 21
First Quarter
Oct 29
Full

Hourly Weather History & Observations

Time (CDT) Temp. Windchill Dew Point Humidity Pressure Visibility Wind Dir Wind Speed Gust Speed Precip Events Conditions
12:53 AM 42.1 °F 37.7 °F 39.0 °F 89% 30.17 in 9.0 mi NW 6.9 mph - N/A   Clear
1:53 AM 41.0 °F 35.2 °F 37.0 °F 86% 30.17 in 9.0 mi NW 9.2 mph - N/A   Clear
2:53 AM 39.0 °F 34.0 °F 37.0 °F 93% 30.17 in 8.0 mi WNW 6.9 mph - N/A   Clear
3:53 AM 39.0 °F 33.4 °F 36.0 °F 89% 30.18 in 10.0 mi WNW 8.1 mph - 0.01 in   Clear
4:53 AM 37.9 °F 32.7 °F 35.1 °F 89% 30.18 in 10.0 mi WNW 6.9 mph - N/A   Clear
5:53 AM 37.0 °F 31.0 °F 34.0 °F 89% 30.20 in 10.0 mi WNW 8.1 mph - N/A   Clear
6:53 AM 37.0 °F 29.8 °F 33.1 °F 86% 30.22 in 9.0 mi WNW 10.4 mph - N/A   Clear
7:53 AM 39.0 °F 32.3 °F 34.0 °F 82% 30.23 in 9.0 mi NW 10.4 mph - N/A   Clear
8:53 AM 41.0 °F 37.1 °F 35.1 °F 79% 30.24 in 10.0 mi NW 5.8 mph - N/A   Clear
9:53 AM 46.0 °F 43.1 °F 35.1 °F 66% 30.23 in 10.0 mi NNW 5.8 mph - N/A   Clear
10:53 AM 48.9 °F - 33.1 °F 54% 30.22 in 10.0 mi NNW 8.1 mph - N/A   Clear
11:53 AM 48.9 °F - 33.1 °F 54% 30.21 in 10.0 mi WNW 5.8 mph - N/A   Clear
1:53 PM 53.1 °F - 33.1 °F 47% 30.19 in 10.0 mi NW 10.4 mph - N/A   Clear
2:53 PM 54.0 °F - 33.1 °F 45% 30.18 in 10.0 mi NW 11.5 mph 17.3 mph N/A   Clear
3:53 PM 53.1 °F - 34.0 °F 48% 30.18 in 10.0 mi NW 8.1 mph - N/A   Scattered Clouds
4:53 PM 51.1 °F - 34.0 °F 52% 30.18 in 9.0 mi WNW 9.2 mph - N/A   Overcast
6:53 PM 48.9 °F - 35.1 °F 59% 30.19 in 10.0 mi NW 10.4 mph - N/A   Mostly Cloudy
7:53 PM 48.0 °F - 36.0 °F 63% 30.19 in 10.0 mi NW 8.1 mph - N/A   Mostly Cloudy
8:53 PM 46.9 °F - 36.0 °F 66% 30.21 in 10.0 mi NW 9.2 mph - N/A   Mostly Cloudy
9:53 PM 46.9 °F - 36.0 °F 66% 30.22 in 10.0 mi NW 8.1 mph - N/A   Overcast
10:53 PM 46.0 °F 41.4 °F 34.0 °F 63% 30.21 in 10.0 mi NNW 9.2 mph - N/A   Mostly Cloudy
11:53 PM 45.0 °F 39.3 °F 34.0 °F 65% 30.19 in 10.0 mi NNW 11.5 mph - N/A   Overcast